STARLINK-32266, 60369

Orbit data source: Space-Track

STARLINK-32266, 60369 is a payload satellite owned by SpaceX/Seattle (US) in LEO that was launched on Sun, 04 Aug 2024 UTC via an FALCON 9 launch vehicle from the Air Force Western Test Range (AFWTR). Payload-class satellites include a variety of spacecraft equipped with specific instruments for various scientific and technological missions. These include communications satellites like Starlink; space stations such as the ISS; scientific satellites like the Hubble; Earth observation satellites from companies like Planet Labs, Umbra, and HawkEye 360; GPS; miniature CubeSats for education and research; and military/defense satellites.

Loading next visibility...
Identifier
60369, 2024-138Q
Orbit
LEO
Last TLE update
12 hours ago
Origin
Manufacturer
SpaceX/Seattle
Mission
Operational Commercial Communications
Bus & Motor
STARLINK V2M, Unknown motor
Mass
730 kg wet, ~700 kg dry
Launch date (UTC)
2024-08-04 (11 months ago)
Launch vehicle
FALCON 9
Launch site
Air Force Western Test Range (AFWTR)
Object type
Payload
Rocket body
Debris
Shape & HBR
Box + 2 Pan, 29 m
Radar Cross Section
33.884 m², Large (>1 m²)

Expand to show TLE details & history

TLE from 12 hours ago
0 STARLINK-32266
1 60369U 24138Q   25181.85350115  .00000153  00000-0  17278-4 0  9995
2 60369  53.1608  26.8320 0001154  83.6412 276.4720 15.30198126 52242
Epoch: 2025-06-30T20:29Z
TLE epoch observation values (Epoch: 2025-06-30T20:29:02.499Z)
Latitude
-0.00003°
Longitude
160.41422°
Altitude
476.031 km
Speed
7.629 km/s
True Right ascension
01h 47m 19s
True Declination
0° 00' 00"
Sunlit
Object was in daylight at epoch
Visualization orbit readout
Latitude
-48.27579°
Longitude
101.37711°
Altitude
492.489 km
Speed
7.618 km/s
Apparent Right ascension
03h 44m 59s
Apparent Declination
-78° 30' 50"
Sunlit
Object is in full shadow
Visualization observer readout
Local Sidereal Time
20:21:43
Azimuth
165.235° S
Elevation
-43.085°
Doppler factor
1
Orbital elements
Apogee altitude
476.268 km
Perigee altitude
474.686 km
Semi-major axis
6,853.614 km
Eccentricity
0.00012
Inclination
53.1608°
RAAN
26.832°
Arg. of periapsis
83.6412°
True anomaly
Unknown
Mean anomaly
276.472°
Eccentric anomaly
Unknown
Mean motion
3.82528 °/min
Orbital period
94.11 mins
BSTAR
0.000017278
Loading maneuver chart data...
Loading SW <> Apogee altitude chart data...
Loading historical data...
Loading historical data...
Loading historical data...
Loading historical data...
Loading historical data...
Loading historical data...
Loading historical data...

STARLINK-32266 Visibility forecast

Observer location: undefined°, undefined°

Span
Click to sort rows by Start time (UTC) header in descending order
Start Az.
Max El. time (UTC)
Max El. Az.
Max El.
End time (UTC)
End Az.
5 mins2025-07-01 15:26:33.496Z184.873° SSW2025-07-01 15:29:33.496Z128.294° SE22.263°2025-07-01 15:31:33.496Z85.409° E
5 mins2025-07-01 17:05:33.496Z272.293° WNW2025-07-01 17:07:33.496Z341.257° N32.211°2025-07-01 17:10:33.496Z37.128° NE
4 mins2025-07-01 22:02:33.496Z348.607° N2025-07-01 22:04:33.496Z40.389° NE23.535°2025-07-01 22:06:33.496Z80.235° E
5 mins2025-07-01 23:40:33.496Z281.89° WNW2025-07-01 23:42:33.496Z205.851° SW33.887°2025-07-01 23:45:33.496Z153.373° SSE
|